Tracking 29892 objects as of 21-Nov-2024
HD Live streaming from Space Station
objects crossing your sky now

COSMOS 1130

Track COSMOS 1130 now!
10-day predictions
COSMOS 1130 is classified as:


NORAD ID: 11538
Int'l Code: 1979-084A
Perigee: 1,403.9 km
Apogee: 1,487.3 km
Inclination: 74.0 °
Period: 114.6 minutes
Semi major axis: 7816 km
RCS: 0.7035 m2 (medium)
Launch date: September 25, 1979
Source: Commonwealth of Independent States (former USSR) (CIS)
Launch site: PLESETSK MISSILE AND SPACE COMPLEX (PKMTR)
Your satellite tracking list
Your tracking list is empty




NASA's NSSDC Master Catalog

Two Line Element Set (TLE):
1 11538U 79084A   24325.85447094  .00000003  00000-0  11485-3 0  9998
2 11538  74.0224 110.7506 0053371 239.1110 289.2778 12.56257416 70813
Source of the keplerian elements: AFSPC